TimePST,TemperatureF,Dew PointF,Humidity,Sea Level PressureIn,VisibilityMPH,Wind Direction,Wind SpeedMPH,Gust SpeedMPH,PrecipitationIn,Events,Conditions,WindDirDegrees,DateUTC
12:53 AM,50.0,24.1,36,30.10,10.0,NE,3.5,-,N/A,,Scattered Clouds,50,2014-01-07 08:53:00
1:53 AM,48.9,23.0,36,30.11,10.0,Calm,Calm,-,N/A,,Partly Cloudy,0,2014-01-07 09:53:00
2:53 AM,46.9,23.0,39,30.10,10.0,NE,4.6,-,N/A,,Scattered Clouds,40,2014-01-07 10:53:00
3:53 AM,48.0,23.0,37,30.09,10.0,NE,4.6,-,N/A,,Scattered Clouds,40,2014-01-07 11:53:00
4:53 AM,46.9,21.9,37,30.09,10.0,NE,6.9,-,N/A,,Scattered Clouds,40,2014-01-07 12:53:00
5:53 AM,51.1,19.0,28,30.09,10.0,NE,3.5,-,N/A,,Scattered Clouds,50,2014-01-07 13:53:00
6:53 AM,48.9,21.9,35,30.11,10.0,Calm,Calm,-,N/A,,Mostly Cloudy,0,2014-01-07 14:53:00
7:53 AM,51.1,23.0,33,30.11,10.0,Calm,Calm,-,N/A,,Mostly Cloudy,0,2014-01-07 15:53:00
8:53 AM,54.0,21.9,29,30.12,10.0,Calm,Calm,-,N/A,,Mostly Cloudy,0,2014-01-07 16:53:00
9:53 AM,59.0,19.0,21,30.14,10.0,Calm,Calm,-,N/A,,Mostly Cloudy,0,2014-01-07 17:53:00
10:53 AM,62.1,16.0,17,30.13,10.0,SW,3.5,-,N/A,,Overcast,220,2014-01-07 18:53:00
11:53 AM,64.9,15.1,15,30.08,10.0,Calm,Calm,-,N/A,,Mostly Cloudy,0,2014-01-07 19:53:00
12:53 PM,66.0,9.0,11,30.05,10.0,Calm,Calm,-,N/A,,Mostly Cloudy,0,2014-01-07 20:53:00
1:53 PM,66.9,18.0,15,30.04,10.0,SW,3.5,-,N/A,,Overcast,220,2014-01-07 21:53:00
2:53 PM,66.9,21.0,17,30.05,10.0,Calm,Calm,-,N/A,,Overcast,0,2014-01-07 22:53:00
3:53 PM,66.9,21.9,18,30.05,10.0,SW,3.5,-,N/A,,Overcast,230,2014-01-07 23:53:00
4:53 PM,64.9,21.9,19,30.06,10.0,Calm,Calm,-,N/A,,Overcast,0,2014-01-08 00:53:00
5:53 PM,64.0,23.0,21,30.05,10.0,Calm,Calm,-,N/A,,Overcast,0,2014-01-08 01:53:00
6:53 PM,62.1,23.0,22,30.06,10.0,Calm,Calm,-,N/A,,Overcast,0,2014-01-08 02:53:00
7:53 PM,60.1,24.1,25,30.05,10.0,Calm,Calm,-,N/A,,Overcast,0,2014-01-08 03:53:00
8:53 PM,57.0,28.0,33,30.07,10.0,NE,3.5,-,N/A,,Mostly Cloudy,40,2014-01-08 04:53:00
9:53 PM,54.0,28.9,38,30.08,10.0,Calm,Calm,-,N/A,,Mostly Cloudy,0,2014-01-08 05:53:00
10:53 PM,53.1,28.0,38,30.08,10.0,NE,3.5,-,N/A,,Overcast,50,2014-01-08 06:53:00
11:53 PM,51.1,28.0,41,30.07,10.0,Calm,Calm,-,N/A,,Mostly Cloudy,0,2014-01-08 07:53:00